Powrót do katalogu

STARLINK-35166

AktywnyŁącznośćVLEO
NORAD 65499·PAYLOAD·🇺🇸 United States

Wystrzelony Sep 5, 2025 z Cape Canaveral Space Force Station

Loading…

Następne Przeloty (najbliższe 24 godziny)

TLE

ŚwieżeSource: CelesTrak SupGP

Epoka: Sep 15, 2026, 03:45 UTC

1 65499C 25198H   26258.15673611 -.00004398  00000+0 -12995-3 0  2583
2 65499  53.1557 108.4603 0001176  88.4700 260.4853 15.34389103    11

Śledź STARLINK-35166 w czasie rzeczywistym z AllMySat

Download on the App Store